| time (UTC) | temp F | wind direction | speed knots | gust knots | rain 1hr in | rain 24hr in | rain mn in | humidity % | barometer mb |
| 20260506184548 | 68 | 168 | 0.9 | 5.2 | 0.00 | 0.00 | 0.00 | 71 | 1020.0 |
| 20260506183034 | 68 | 0 | 0.9 | 4.3 | 0.00 | 0.00 | 0.00 | 71 | 1020.1 |
| 20260506181534 | 67 | 164 | 0.0 | 3.5 | 0.00 | 0.00 | 0.00 | 74 | 1020.1 |
| 20260506180039 | 65 | 0 | 0.0 | 1.7 | 0.00 | 0.00 | 0.00 | 76 | 1020.1 |
| 20260506174537 | 64 | 0 | 0.0 | 1.7 | 0.00 | 0.00 | 0.00 | 76 | 1020.0 |
| 20260506173047 | 63 | 0 | 0.0 | 1.7 | 0.00 | 0.00 | 0.00 | 76 | 1020.1 |
| 20260506171538 | 63 | 0 | 0.0 | 1.7 | 0.00 | 0.00 | 0.00 | 79 | 1020.0 |
| 20260506170036 | 62 | 0 | 0.0 | 0.0 | 0.00 | 0.00 | 0.00 | 79 | 1020.0 |
| 20260506164536 | 62 | 0 | 0.0 | 0.0 | 0.00 | 0.00 | 0.00 | 80 | 1020.1 |
| 20260506163055 | 61 | 0 | 0.0 | 0.0 | 0.00 | 0.00 | 0.00 | 81 | 1020.0 |
| 20260506161538 | 60 | 0 | 0.0 | 0.0 | 0.00 | 0.00 | 0.00 | 81 | 1020.0 |
| 20260506160038 | 60 | 0 | 0.0 | 0.0 | 0.00 | 0.00 | 0.00 | 83 | 1019.9 |
| 20260506154543 | 60 | 0 | 0.0 | 0.0 | 0.00 | 0.00 | 0.00 | 84 | 1019.9 |
| 20260506153034 | 59 | 0 | 0.0 | 0.0 | 0.00 | 0.00 | 0.00 | 85 | 1019.9 |
| 20260506151540 | 59 | 0 | 0.0 | 0.0 | 0.00 | 0.00 | 0.00 | 86 | 1019.9 |
| 20260506150038 | 58 | 0 | 0.0 | 0.0 | 0.00 | 0.00 | 0.00 | 86 | 1019.7 |
| 20260506144537 | 57 | 0 | 0.0 | 0.0 | 0.00 | 0.00 | 0.00 | 86 | 1019.8 |
| 20260506143039 | 57 | 0 | 0.0 | 0.0 | 0.00 | 0.00 | 0.00 | 86 | 1019.8 |
| 20260506141535 | 57 | 0 | 0.0 | 0.0 | 0.00 | 0.00 | 0.00 | 87 | 1019.7 |
| 20260506140037 | 57 | 0 | 0.0 | 0.0 | 0.00 | 0.00 | 0.00 | 87 | 1019.5 |
| 20260506134538 | 56 | 0 | 0.0 | 0.0 | 0.00 | 0.00 | 0.00 | 87 | 1019.4 |
| 20260506133038 | 56 | 0 | 0.0 | 0.0 | 0.00 | 0.00 | 0.00 | 87 | 1019.3 |
| 20260506131539 | 56 | 0 | 0.0 | 0.0 | 0.00 | 0.00 | 0.00 | 86 | 1019.3 |
| 20260506130040 | 56 | 0 | 0.0 | 0.0 | 0.00 | 0.00 | 0.00 | 86 | 1019.1 |
| 20260506124535 | 56 | 0 | 0.0 | 0.0 | 0.00 | 0.00 | 0.00 | 86 | 1019.1 |
| 20260506123036 | 56 | 0 | 0.0 | 0.0 | 0.00 | 0.00 | 0.00 | 86 | 1018.9 |
| 20260506121532 | 56 | 0 | 0.0 | 0.0 | 0.00 | 0.00 | 0.00 | 86 | 1018.8 |
| 20260506120040 | 56 | 0 | 0.0 | 0.0 | 0.00 | 0.00 | 0.00 | 86 | 1018.7 |
| 20260506114534 | 56 | 0 | 0.0 | 0.0 | 0.00 | 0.00 | 0.00 | 86 | 1018.8 |
| 20260506113034 | 56 | 0 | 0.0 | 0.0 | 0.00 | 0.00 | 0.00 | 86 | 1018.7 |
| 20260506111538 | 56 | 0 | 0.0 | 0.0 | 0.00 | 0.00 | 0.00 | 86 | 1018.6 |
| 20260506110036 | 57 | 0 | 0.0 | 0.0 | 0.00 | 0.00 | 0.00 | 86 | 1018.4 |
| 20260506104537 | 57 | 0 | 0.0 | 0.0 | 0.00 | 0.00 | 0.00 | 86 | 1018.3 |
| 20260506103038 | 57 | 0 | 0.0 | 0.0 | 0.00 | 0.00 | 0.00 | 86 | 1018.3 |
| 20260506101535 | 57 | 0 | 0.0 | 0.0 | 0.00 | 0.00 | 0.00 | 86 | 1018.1 |
| 20260506100037 | 57 | 0 | 0.0 | 0.0 | 0.00 | 0.00 | 0.00 | 86 | 1017.9 |
| 20260506094542 | 57 | 0 | 0.0 | 0.0 | 0.00 | 0.00 | 0.00 | 86 | 1018.0 |
| 20260506093039 | 57 | 0 | 0.0 | 0.0 | 0.00 | 0.00 | 0.00 | 86 | 1017.9 |
| 20260506091537 | 57 | 0 | 0.0 | 0.0 | 0.00 | 0.00 | 0.00 | 85 | 1018.0 |
| 20260506090037 | 57 | 0 | 0.0 | 0.0 | 0.00 | 0.00 | 0.00 | 85 | 1018.1 |
| 20260506084543 | 57 | 0 | 0.0 | 0.0 | 0.00 | 0.00 | 0.00 | 85 | 1017.9 |
| 20260506083038 | 58 | 0 | 0.0 | 0.0 | 0.00 | 0.00 | 0.00 | 85 | 1018.0 |
| 20260506081543 | 58 | 0 | 0.0 | 0.0 | 0.00 | 0.00 | 0.00 | 85 | 1018.0 |
| 20260506073038 | 58 | 0 | 0.0 | 0.0 | 0.00 | 0.00 | 0.00 | 84 | 1017.8 |
| 20260506071535 | 58 | 0 | 0.0 | 0.0 | 0.00 | 0.00 | 0.00 | 84 | 1017.7 |
| 20260506061543 | 59 | 0 | 0.0 | 1.7 | 0.00 | 0.03 | 0.00 | 83 | 1017.2 |
| 20260506044543 | 60 | 0 | 0.0 | 0.0 | 0.00 | 0.22 | 0.00 | 81 | 1016.4 |
| 20260506043037 | 60 | 0 | 0.0 | 0.0 | 0.00 | 0.22 | 0.00 | 80 | 1016.2 |
| 20260506041550 | 60 | 0 | 0.0 | 0.0 | 0.00 | 0.22 | 0.00 | 80 | 1016.0 |
| 20260506040035 | 60 | 0 | 0.0 | 0.0 | 0.00 | 0.22 | 0.00 | 79 | 1015.8 |
| 20260506034547 | 61 | 0 | 0.0 | 3.5 | 0.00 | 0.51 | 0.00 | 79 | 1015.6 |
| 20260506033040 | 61 | 0 | 0.0 | 3.5 | 0.00 | 0.51 | 0.00 | 78 | 1015.6 |
| 20260506031537 | 61 | 164 | 0.0 | 1.7 | 0.00 | 0.51 | 0.00 | 78 | 1015.4 |
| 20260506030039 | 61 | 0 | 0.0 | 0.0 | 0.00 | 0.51 | 0.00 | 78 | 1015.3 |
| 20260506024536 | 62 | 0 | 0.0 | 3.5 | 0.00 | 0.62 | 0.00 | 76 | 1015.0 |
| 20260506023034 | 62 | 164 | 0.9 | 3.5 | 0.00 | 0.62 | 0.00 | 76 | 1015.0 |
| 20260506021538 | 62 | 164 | 0.0 | 3.5 | 0.00 | 0.62 | 0.00 | 75 | 1014.6 |
| 20260506020042 | 63 | 0 | 0.0 | 1.7 | 0.00 | 0.62 | 0.00 | 74 | 1014.6 |
| 20260506014538 | 63 | 164 | 0.0 | 3.5 | 0.00 | 0.74 | 0.00 | 73 | 1014.4 |
| 20260506013050 | 63 | 0 | 0.9 | 3.5 | 0.00 | 0.74 | 0.00 | 72 | 1014.4 |
| 20260506011543 | 63 | 0 | 0.9 | 2.6 | 0.00 | 0.74 | 0.00 | 72 | 1014.3 |
| 20260506010043 | 64 | 184 | 0.0 | 4.3 | 0.00 | 0.74 | 0.00 | 71 | 1014.4 |
| 20260506004537 | 64 | 191 | 0.0 | 2.6 | 0.00 | 0.80 | 0.00 | 69 | 1014.3 |
| 20260506003038 | 64 | 193 | 0.0 | 2.6 | 0.00 | 0.80 | 0.00 | 67 | 1014.4 |
| 20260506001537 | 64 | 199 | 0.9 | 3.5 | 0.00 | 0.80 | 0.00 | 69 | 1014.0 |
| 20260506000037 | 65 | 209 | 0.0 | 2.6 | 0.00 | 0.80 | 0.00 | 69 | 1014.1 |
| 20260505234536 | 65 | 0 | 0.0 | 2.6 | 0.00 | 0.91 | 0.00 | 69 | 1014.2 |
| 20260505233035 | 65 | 0 | 0.0 | 1.7 | 0.00 | 0.91 | 0.00 | 67 | 1014.1 |
| 20260505231534 | 65 | 210 | 0.0 | 2.6 | 0.00 | 0.91 | 0.00 | 73 | 1014.1 |
| 20260505230100 | 64 | 0 | 0.0 | 0.0 | 0.00 | 0.91 | 0.00 | 71 | 1014.3 |
| 20260505224538 | 63 | 0 | 0.0 | 0.0 | 0.00 | 1.00 | 0.00 | 70 | 1014.3 |
| 20260505223042 | 63 | 0 | 0.0 | 0.0 | 0.00 | 1.00 | 0.00 | 71 | 1014.5 |
| 20260505221541 | 63 | 0 | 0.0 | 0.9 | 0.00 | 1.00 | 0.00 | 75 | 1014.5 |
| 20260505220049 | 63 | 0 | 0.0 | 1.7 | 0.00 | 1.00 | 0.00 | 74 | 1014.6 |
| 20260505214538 | 63 | 0 | 0.0 | 2.6 | 0.00 | 1.05 | 0.00 | 73 | 1014.7 |
| 20260505213037 | 63 | 210 | 0.0 | 2.6 | 0.00 | 1.05 | 0.00 | 73 | 1014.7 |
| 20260505211534 | 63 | 210 | 0.0 | 3.5 | 0.00 | 1.05 | 0.00 | 74 | 1014.7 |
| 20260505210038 | 63 | 210 | 0.9 | 4.3 | 0.00 | 1.05 | 0.00 | 73 | 1014.6 |
| 20260505204538 | 64 | 221 | 0.9 | 4.3 | 0.00 | 1.09 | 0.00 | 73 | 1014.6 |
| 20260505203038 | 65 | 0 | 0.9 | 3.5 | 0.00 | 1.09 | 0.00 | 70 | 1014.7 |
| 20260505201540 | 66 | 219 | 1.7 | 4.3 | 0.00 | 1.09 | 0.00 | 74 | 1014.7 |
| 20260505200041 | 67 | 0 | 0.0 | 1.7 | 0.00 | 1.09 | 0.00 | 72 | 1014.8 |
| 20260505194541 | 66 | 0 | 0.0 | 2.6 | 0.00 | 1.11 | 0.00 | 75 | 1015.0 |
| 20260505193042 | 64 | 178 | 0.0 | 5.2 | 0.00 | 1.11 | 0.00 | 75 | 1015.0 |
| 20260505191543 | 63 | 0 | 0.9 | 3.5 | 0.00 | 1.11 | 0.00 | 78 | 1015.0 |
| 20260505190038 | 62 | 141 | 0.0 | 2.6 | 0.00 | 1.11 | 0.00 | 81 | 1015.1 |